Location: Unspecified
(0.0000°N, 0.0000°E)
Time: 21:45:45
(UTC+02:00)

Cosmos 1954 Rocket - Visible Passes

Search period start: 28 July 2015 00:00
Search period end: 07 August 2015 00:00
Orbit: 753 x 782 km, 74.0° (Epoch: 28 July)

Date Brightness Start Highest point End Pass type
(mag) Time Alt. Az. Time Alt. Az. Time Alt. Az.
28 Jul 6.8 07:29:58 10° SE 07:32:48 15° ESE 07:35:57 10° ENE visible
28 Jul 7.1 21:46:30 10° W 21:47:10 10° WSW 21:47:21 10° WSW visible
29 Jul 6.4 21:05:49 10° NW 21:09:52 22° WSW 21:13:46 10° SSW visible
30 Jul 5.2 20:27:41 10° NNW 20:32:39 45° WSW 20:37:38 10° S visible
31 Jul 6.0 07:18:49 10° SSE 07:23:19 29° ESE 07:27:52 10° NE visible
01 Aug 6.8 06:43:27 10° SE 06:46:02 14° ESE 06:48:58 10° ENE visible
01 Aug 7.1 20:58:52 10° W 21:00:24 11° WSW 21:01:28 10° WSW visible
03 Aug 4.6 07:08:34 10° S 07:13:44 58° ESE 07:18:52 10° NNE visible
04 Aug 5.9 06:32:10 10° SSE 06:36:33 28° ESE 06:41:02 10° NE visible
05 Aug 6.8 05:56:57 10° SE 05:59:16 13° ESE 06:01:57 10° ENE visible
05 Aug 4.7 07:36:31 10° SW 07:41:16 34° WNW 07:45:55 10° NNW visible
06 Aug 3.9 06:58:52 10° SSW 07:04:07 72° WNW 07:09:18 10° N visible
